STARLINK-32599, 62048

Orbit data source: Space-Track

STARLINK-32599, 62048 is a payload satellite owned by SpaceX/Seattle (US) in LEO that was launched on Thu, 21 Nov 2024 UTC via an FALCON 9 launch vehicle from the Air Force Eastern Test Range (AFETR). Payload-class satellites include a variety of spacecraft equipped with specific instruments for various scientific and technological missions. These include communications satellites like Starlink; space stations such as the ISS; scientific satellites like the Hubble; Earth observation satellites from companies like Planet Labs, Umbra, and HawkEye 360; GPS; miniature CubeSats for education and research; and military/defense satellites.

Loading next visibility...
Identifier
62048, 2024-216S
Orbit
LEO
Last TLE update
6 hours ago
Origin
Manufacturer
SpaceX/Seattle
Mission
Operational Commercial Communications
Bus & Motor
STARLINK V2M, Unknown motor
Mass
730 kg wet, ~700 kg dry
Launch date (UTC)
2024-11-21 (8 months ago)
Launch vehicle
FALCON 9
Launch site
Air Force Eastern Test Range (AFETR)
Object type
Payload
Rocket body
Debris
Shape & HBR
Box + 2 Pan, 29 m
Radar Cross Section
36.964 m², Large (>1 m²)

Expand to show TLE details & history

TLE from 6 hours ago
0 STARLINK-32599
1 62048U 24216S   25189.09431410  .00015843  00000-0  58386-3 0  9996
2 62048  42.9945 204.9546 0000648 259.4624 100.6154 15.27586974 36353
Epoch: 2025-07-08T02:15Z
TLE epoch observation values (Epoch: 2025-07-08T02:15:48.738Z)
Latitude
-0.00005°
Longitude
-115.29276°
Altitude
482.885 km
Speed
7.626 km/s
True Right ascension
13h 39m 49s
True Declination
0° 00' 00"
Sunlit
Object was in daylight at epoch
Visualization orbit readout
Latitude
-42.42745°
Longitude
140.47538°
Altitude
495.606 km
Speed
7.618 km/s
Apparent Right ascension
07h 26m 38s
Apparent Declination
-41° 34' 34"
Sunlit
Object is in daylight
Visualization observer readout
Local Sidereal Time
20:12:03
Azimuth
104.602° ESE
Elevation
-81.248°
Doppler factor
1
Orbital elements
Apogee altitude
485.419 km
Perigee altitude
484.53 km
Semi-major axis
6,863.111 km
Eccentricity
0.00006
Inclination
42.9945°
RAAN
204.9546°
Arg. of periapsis
259.4624°
True anomaly
Unknown
Mean anomaly
100.6154°
Eccentric anomaly
Unknown
Mean motion
3.81735 °/min
Orbital period
94.31 mins
BSTAR
0.00058386
Loading maneuver chart data...
Loading SW <> Apogee altitude chart data...
Loading historical data...
Loading historical data...
Loading historical data...
Loading historical data...
Loading historical data...
Loading historical data...
Loading historical data...

STARLINK-32599 Visibility forecast

Observer location: undefined°, undefined°

Span
Click to sort rows by Start time (UTC) header in descending order
Start Az.
Max El. time (UTC)
Max El. Az.
Max El.
End time (UTC)
End Az.
6 mins2025-07-08 08:57:23.487Z289.375° WNW2025-07-08 09:00:23.487Z335.548° NNW44.231°2025-07-08 09:03:23.487Z102.966° ESE
5 mins2025-07-08 10:37:23.487Z257.361° W2025-07-08 10:39:23.487Z209.265° SW24.742°2025-07-08 10:42:23.487Z153.897° SSE
4 mins2025-07-09 03:34:23.487Z176.925° S2025-07-09 03:35:23.487Z156.58° SSE19.293°2025-07-09 03:38:23.487Z98.575° ESE
5 mins2025-07-09 05:12:23.487Z248.054° W2025-07-09 05:14:23.487Z213.35° SW44.796°2025-07-09 05:17:23.487Z72.606° E
5 mins2025-07-09 06:51:23.487Z288.807° WNW2025-07-09 06:53:23.487Z343.507° N37.726°2025-07-09 06:56:23.487Z71.703° E
|